Regional Weather Roundup
Issued by NWS Green Bay, WI

Home | Current Version | Previous Version | Text Only | Print | Product List | Glossary On
Versions: 1 2 3 4 5 6 7 8 9 10 11 12 13 14 15 16 17 18 19 20 21 22 23 24 25 26 27 28 29 30 31 32 33 34 35 36 37 38 39 40 41 42 43 44 45 46 47 48 49 50
000
ASUS43 KGRB 182110
RWRGRB

NORTH-CENTRAL AND NORTHEAST WISCONSIN REGIONAL WEATHER ROUNDUP
NATIONAL WEATHER SERVICE GREEN BAY WI
400 PM CDT FRI APR 18 2014

WIZ005-009-010>012-018-019-182200-
NORTH CENTRAL WISCONSIN

CITY           SKY/WX    TMP DP  RH WIND       PRES   REMARKS
IRONWOOD       SUNNY     39  19  45 NE6       30.33F
MANITOWISH WTR SUNNY     39  19  44 CALM      30.34F
ARBOR VITAE    SUNNY     45  17  32 N3G9      30.34F
EAGLE RIVER    SUNNY     39  18  41 CALM      30.34F
LAND O LAKES   SUNNY     39  23  52 N7        30.35F
RHINELANDER    SUNNY     42  16  34 NW5       30.35F
PHILLIPS       SUNNY     41  18  40 N8        30.34F
ANTIGO         SUNNY     43  22  43 N7        30.35S
TOMAHAWK       SUNNY     43  16  33 NE3       30.35F
MERRILL        SUNNY     46  22  38 CALM      30.34F
$$

WIZ013-073-182200-
NORTHEAST WISCONSIN

CITY           SKY/WX    TMP DP  RH WIND       PRES   REMARKS
IRON MOUNTAIN  SUNNY     40  21  46 N13       30.35F
MARINETTE      MOSUNNY   43  27  52 S5        30.37S
OCONTO         SUNNY     44  26  50 SE6       30.37S
$$

WIZ017-030-035>037-045-182200-
CENTRAL WISCONSIN

CITY           SKY/WX    TMP DP  RH WIND       PRES   REMARKS
MEDFORD        SUNNY     45  19  35 NW3       30.33F
WAUSAU         SUNNY     48  18  30 NE8       30.33S
MOSINEE        SUNNY     46  25  42 N10       30.35F
MARSHFIELD     SUNNY     50  23  34 N9        30.33F
WISC RAPIDS    SUNNY     52  20  28 N8        30.35F
STEVENS POINT  SUNNY     48  18  30 NW7       30.34F
WAUPACA        SUNNY     54  14  20 CALM      30.35S
SHAWANO        SUNNY     51  23  33 NE3       30.35S
CLINTONVILLE   SUNNY     50  19  29 N3        30.34S
$$

WIZ038-039-048-051-182200-
FOX VALLEY

CITY           SKY/WX    TMP DP  RH WIND       PRES   REMARKS
NWS GREEN BAY  MOSUNNY   49  28  44 VRB3      30.36S
APPLETON       MOSUNNY   16  21 100 NW8       30.35F WCI   5
OSHKOSH        SUNNY     49  28  44 NE7       30.36S
FOND DU LAC    SUNNY     48  28  46 NE8       30.36S
$$

WIZ022-050-052-182200-
EAST CENTRAL WISCONSIN

CITY           SKY/WX    TMP DP  RH WIND       PRES   REMARKS
STURGEON BAY   SUNNY     45  25  45 N8        30.38S
MANITOWOC      MOSUNNY   42  29  59 E10       30.38S
SHEBOYGAN      SUNNY     42  31  64 NE10      30.37S
$$

LMZ563-521-522-541>543-182200-
LAKESHORE

STATION/POSITION TIME  TEMP    WIND        PRES    VSBY  WAVE
                       AIR SEA DIR/SP/G                  HT/PER
                 (UTC) (F)     (DEG/KT/KT) (MB)    (MI)  (FT/S)
SHEBOYGAN LKSHOR 2100   36      60/  9/ 11 1029.6S
KEWAUNEE LKSHORE 2100   38     120/  6/  8 1029.4S
NORTHPORT PIER   2100   40     310/  5/  6 1028.4S
SISTER BAY LKSHO 2100             CALM       N/A
STURGEON BAY CG  2100   37     130/  7     1029.3      6   1
MENOMINEE LKSHOR 2100   38     140/  6/  7 1029.0F
$$



USA.gov is the U.S. government's official web portal to all federal, state and local government web resources and services.